Regional Weather Roundup
Issued by NWS

Home | Current Version | Previous Version | Text Only | Print | Product List | Glossary Off
Versions: 1 2 3 4 5 6 7 8 9 10 11 12 13 14 15 16 17 18 19 20 21 22 23 24 25 26 27 28 29 30 31 32 33 34 35 36 37 38 39 40 41 42 43 44 45 46 47 48 49 50

000
ASUS43 KDTX 250410
RWRMI
MICHIGAN HOURLY REGIONAL WEATHER ROUNDUP
NATIONAL WEATHER SERVICE DETROIT/PONTIAC MI
1100 PM EST SAT JAN 24 2015

NOTE: "FAIR" INDICATES FEW OR NO CLOUDS BELOW 12,000 FEET WITH NO
SIGNIFICANT WEATHER AND/OR OBSTRUCTION TO VISIBILITY.

MIZ047>049-052>055-059>063-066>070-074>076-081>083-250500-
SOUTHEAST LOWER MICHIGAN

CITY           SKY/WX    TMP DP  RH WIND       PRES   REMARKS
ADRIAN         CLOUDY    34  31  88 W5        29.69S WCI  30
ALMA           CLOUDY    34  32  93 NW5       29.66S WCI  30
ANN ARBOR      CLOUDY    34  32  92 W7        29.67R WCI  28
BAD AXE        CLOUDY    30  24  77 N13       29.65R WCI  20
CARO           CLOUDY    33  27  78 NW10G16   29.65R WCI  25
DETROIT CITY   CLOUDY    37  30  75 W6        29.66R WCI  32
DETROIT        CLOUDY    35  32  88 SW10      29.67S WCI  27
FLINT          CLOUDY    36  32  85 W8        29.65R WCI  30
GROSSE ILE     CLOUDY    36  32  87 SW8       29.66S WCI  29
HILLSDALE      CLOUDY    35  32  88 CALM      29.66F
HOWELL         CLOUDY    33  32  96 W8        29.65S FOG     WCI  26

CITY           SKY/WX    TMP DP  RH WIND       PRES   REMARKS
JACKSON        CLOUDY    34  31  88 W5        29.66S WCI  30
LAMBERTVILLE   CLOUDY    36  32  87 SW5       29.69F WCI  32
LANSING        LGT SNOW  34  32  92 W7        29.67R FOG     WCI  28
LAPEER         CLOUDY    33  32  96 CALM      29.64S
MASON          LGT SNOW  33  32  96 CALM      29.66S
MONROE         FLURRIES  36  32  87 W8        29.67S WCI  29
MT. CLEMENS    MOCLDY    35  31  85 W6        29.63R WCI  30
PONTIAC        CLOUDY    34  31  88 W9          N/A  WCI  27
PORT HOPE        N/A     29  21  72 N13G18    29.65R WCI  19
PORT HURON     CLOUDY    34  32  93 W5        29.65R WCI  30
TRI CITIES     CLOUDY    36  28  73 N10       29.66R WCI  28
TROY           CLOUDY    37  32  82 W5        29.67R WCI  33
SAGINAW HB     CLOUDY    34  32  93 NW6       29.66R WCI  29
$$
MIZ043>046-050>051-056>058-064>065-071>073-077>080-250500-
SOUTHWEST LOWER MICHIGAN

CITY           SKY/WX    TMP DP  RH WIND       PRES   REMARKS
BATTLE CREEK   CLOUDY    37  31  78 W5        29.66F WCI  33
BENTON HARBOR  CLOUDY    35  34  96 W7        29.68R FOG     WCI  29
BIG RAPIDS     CLOUDY    31  28  86 N9        29.66R WCI  23
COLDWATER      CLOUDY    34  32  92 SW5       29.66F WCI  30
FREMONT        CLOUDY    33  32  97 CALM      29.66R FOG
HOLLAND        CLOUDY    38  33  82 W5        29.68R WCI  34
GRAND RAPIDS   FLURRIES  36  32  85 CALM      29.66S
IONIA          LGT SNOW  35  34  96 W3        29.65F
KALAMAZOO      CLOUDY    35  30  82 SW3       29.67S
LUDINGTON      CLOUDY    31  25  77 NE5       29.70R WCI  27
MARSHALL       CLOUDY    34  31  90 CALM      29.66S
MOUNT PLEASANT CLOUDY    33  26  75 NW7       29.66S WCI  26
MUSKEGON       CLOUDY    36  33  89 CALM      29.67S FOG
SOUTH HAVEN    CLOUDY    37  34  88 NW6       29.68S WCI  32
$$
MIZ016>042-250500-
NORTHERN LOWER MICHIGAN

CITY           SKY/WX    TMP DP  RH WIND       PRES   REMARKS
ALPENA         CLOUDY    22  14  71 N15G22    29.70R WCI   9
BEAVER ISLAND  PTCLDY    18  11  74 CALM      29.75R
BELLAIRE       MOCLDY    21  12  69 N8G17     29.74R WCI  11
CADILLAC       CLOUDY    23  18  81 N7G16     29.67R WCI  14
CHARLEVOIX     PTCLDY    19  12  74 N16G23    29.76S WCI   5
FRANKFORT      CLOUDY    24  19  80 NE7       29.73R WCI  16
GAYLORD        MOCLDY    16  11  80 VRB6      29.67R WCI   7
GRAYLING       MOCLDY    20  14  76 N9        29.68R WCI   9
HARBOR SPRINGS CLEAR     17  11  75 N3        29.73R
HOUGHTON LAKE  CLOUDY    23  16  74 N10       29.67R WCI  12
MANISTEE       CLOUDY    28  19  69 NE8       29.71S WCI  20
OSCODA         PTCLDY    24  16  71 N15       29.68R WCI  11
PELLSTON       PTCLDY    16  10  77 N9        29.74R WCI   4
ROGERS CITY    PTCLDY    20  15  80 N12G17    29.72R WCI   8
TRAVERSE CITY  CLOUDY    25  18  74 N15       29.72R WCI  13
$$
MIZ007>008-015-250500-
EASTERN UPPER MICHIGAN

CITY           SKY/WX    TMP DP  RH WIND       PRES   REMARKS
KINROSS        CLEAR      9   7  92 N8        29.74R WCI  -4
MACKINAC ISLAN CLEAR     14   8  76 N10G20    29.73R WCI   2
NEWBERRY       MOCLDY    14   9  79 VRB12     29.74R WCI   0
S. S. MARIE    CLEAR     10   0  63 N10       29.75R WCI  -4
MUNISING         N/A     20  12  71 NE18      29.77R WCI   5
$$
MIZ004>006-011>014-085-250500-
CENTRAL UPPER MICHIGAN

CITY           SKY/WX    TMP DP  RH WIND       PRES   REMARKS
MANISTIQUE     CLOUDY    19  13  77 N6        29.75R WCI  11
ESCANABA       CLOUDY   N/A N/A N/A MISG        N/A
MENOMINEE      CLOUDY    21  12  68 N12       29.76R WCI   9
SAWYER-GWINN   LGT SNOW  18  14  82 NE9       29.74R WCI   7
$$
MIZ001>003-009>011-084-250500-
WESTERN UPPER MICHIGAN

CITY           SKY/WX    TMP DP  RH WIND       PRES   REMARKS
IRON MOUNTAIN  CLOUDY    19  10  68 N9        29.74R WCI   8
HOUGHTON       CLOUDY    16  10  77 NE8       29.79R WCI   5
COPPER HARBOR    N/A     18  10  71 E9G21     29.83R WCI   7
IRONWOOD       MOCLDY    14   9  79 E9        29.76R WCI   2
$$

ABBREVIATIONS USED IN REMARKS
   TC - TEMPERATURE IN CELSIUS
  WCI - WIND CHILL INDEX
   HX - HEAT INDEX
  VSB - VISIBILITY



USA.gov is the U.S. government's official web portal to all federal, state and local government web resources and services.